Regional Weather Roundup
Issued by NWS Newport/Morehead, NC

Current Version | Previous Version | Text Only | Print | Product List | Glossary Off
Versions: 1 2 3 4 5 6 7 8 9 10 11 12 13 14 15 16 17 18 19 20 21 22 23 24 25 26 27 28 29 30 31 32 33 34 35 36 37 38 39 40 41 42 43 44 45 46 47 48 49 50
000 ASUS42 KMHX 300125 RWRMHX WEATHER ROUNDUP FOR EASTERN NORTH CAROLINA NATIONAL WEATHER SERVICE NEWPORT/MOREHEAD CITY NC 900 PM EDT FRI JUL 29 2016 NOTE: "FAIR" INDICATES FEW OR NO CLOUDS BELOW 12,000 FEET WITH NO SIGNIFICANT WEATHER AND/OR OBSTRUCTIONS TO VISIBILITY NCZ015>017-031-032-045>047-102-103-300200- NORTH COAST CITY SKY/WX TMP DP RH WIND PRES REMARKS EDENTON CLEAR 83 73 72 CALM 29.93R ELIZABETH CITY PTCLDY 81 74 79 E8 29.93R KITTY HAWK CLOUDY 80 79 95 CALM 29.92R MANTEO N/A 81 78 92 NE7 29.93R $$ NCZ045>047-081-094-103-104-300200- CENTRAL COAST CITY SKY/WX TMP DP RH WIND PRES REMARKS FRISCO CLOUDY 83 78 85 W6 29.93R $$ NCZ095-097-098-100-101-300200- SOUTHERN COAST CITY SKY/WX TMP DP RH WIND PRES REMARKS BEAUFORT CLEAR 84 80 88 SW10 29.92R CEDAR ISLAND NOT AVBL JACKSONVILLE CLOUDY 84 74 71 SW3 29.91R PINEY ISLAND NOT AVBL WILMINGTON CLEAR 85 77 77 SW8 29.93R $$ NCZ011>013-027>030-043-044-078>080-089-090>093-098-300200- COASTAL PLAIN CITY SKY/WX TMP DP RH WIND PRES REMARKS AHOSKIE CLEAR 77 75 93 CALM 29.93R CLINTON CLEAR 83 73 72 CALM 29.93R ELIZABETHTOWN CLEAR 86 75 69 SW3 29.93R GOLDSBORO CLEAR 86 71 59 N2 29.91R GREENVILLE CLEAR 82 77 83 N3 29.94R HAVELOCK CLEAR 83 77 82 CALM 29.92R KENANSVILLE NOT AVBL KINSTON CLEAR 82 73 74 CALM 29.93R NEW BERN CLEAR 83 76 79 CALM 29.93R RICHLANDS PTCLDY 83 74 74 CALM 29.92R ROCKY MOUNT CLEAR 79 75 87 CALM 29.92S WASHINGTON CLEAR 82 76 82 CALM 29.92R WHITEVILLE CLEAR 83 77 81 CALM 29.92S $$ AMZ130-135-150-152-154-156-158-170-250-252-270-ANZ085-086-088-633-658-670-300200- MARINE OBSERVATIONS STATION/POSITION TIME TEMP WIND PRES WAVE SWELL AIR SEA DIR/SP/G HT/PER HT/PER (UTC) (F) (DEG/KT/KT) (MB) (FT/S) (FT/S) CHESAPEAKE LIGHT NOT AVBL 64 E VA BEACH 0050 82 83 360/ 8/ 10 1012.6 3/ 6 3/ 6 DUCK 0000 73 N/A 2 E DUCK 0111 79 N/A 1/14 OREGON INLET 0000 82 N/A 13E OREGON INLT 0100 79 N/A 3/ 6 2/ 6 HATTERAS CG 0000 85 N/A DIAMOND BUOY 0050 85 86 240/ 17/ 19 1013.0 4/ 5 2/13 CAPE LOOKOUT 0100 84 230/ 8/ 11 1012.9 BEAUFORT LAB 0000 83 N/A 30 SE NEW RVR IN 0108 85 85 240/ 17/ 21 1013.0 30 SE NEW RVR IN 0025 85 N/A 5/ 6 27 SE WRIGHTSVLE 0108 85 84 230/ 16/ 19 1013.5 5 SE WRIGHTSVLE 0108 82 80 240/ 8/ 12 1014.4 225 S CAPE HAT 0050 85 85 210/ 10/ 12 1015.8 3/ 7 3/ 7 41 SE CHARLESTON 0050 86 86 210/ 17/ 19 1013.3 4/ 4 2/ 8 $$

USA.gov is the U.S. government's official web portal to all federal, state and local government web resources and services.